Hopewell, New Jersey, United States (08525)
Lat: 40.39N, Lon: 74.76W
Wx Zone: NJZ015
Local Info
Past Weather Observations for Saturday, August 27, 2016

NOTE: This archive is for the closest National Weather Service station to Hopewell. Information may differ from the station used for current weather conditions.

Click here for Long-term Archive

Time Weather Temperature Dewpoint Humidity Pressure Winds Precip Visibility
23:53
Clear
66°F / 19°C 64°F / 18°C 94% 30.09 in
(1019 mb)
NW 3.5 mph
(NW 6 kph)
- 7SM
22:53
Clear
70°F / 21°C 66°F / 19°C 88% 30.06 in
(1018 mb)
Calm - 9SM
21:53
Clear
70°F / 21°C 66°F / 19°C 88% 30.06 in
(1018 mb)
Calm - 10SM
20:53
Clear
72°F / 22°C 68°F / 20°C 88% 30.06 in
(1018 mb)
Calm - 10SM
19:53
Clear
73°F / 23°C 68°F / 20°C 83% 30.04 in
(1017 mb)
Calm - 10SM
18:53
Clear
79°F / 26°C 66°F / 19°C 65% 30.01 in
(1016 mb)
Calm - 10SM
17:53
Clear
86°F / 30°C 66°F / 19°C 52% 30.01 in
(1016 mb)
NW 3.5 mph
(NW 6 kph)
- 10SM
16:53
Clear
90°F / 32°C 64°F / 18°C 43% 30.01 in
(1016 mb)
N 9.2 mph
(N 15 kph)
- 10SM
15:53
Partly Cloudy
91°F / 33°C 64°F / 18°C 41% 29.98 in
(1015 mb)
NNW 10.4 mph
(NNW 17 kph)
- 10SM
14:53
Partly Cloudy
91°F / 33°C 64°F / 18°C 41% 29.98 in
(1015 mb)
N 9.2 mph
(N 15 kph)
- 10SM
13:53
Clear
91°F / 33°C 68°F / 20°C 46% 29.98 in
(1015 mb)
NW 8.1 mph
(NW 13 kph)
- 10SM
12:53
Mostly Cloudy
90°F / 32°C 70°F / 21°C 52% 30.01 in
(1016 mb)
NW 9.2 mph
(NW 15 kph)
- 10SM
11:53
Mostly Cloudy
88°F / 31°C 70°F / 21°C 55% 29.98 in
(1015 mb)
Variable 4.6 mph
(Variable 7 kph)
- 10SM
10:53
Partly Cloudy
88°F / 31°C 70°F / 21°C 55% 30.01 in
(1016 mb)
NNW 10.4 mph
(NNW 17 kph)
- 10SM
09:53
Partly Cloudy
88°F / 31°C 70°F / 21°C 55% 30.01 in
(1016 mb)
NW 9.2 mph
(NW 15 kph)
- 10SM
08:53
Clear
84°F / 29°C 72°F / 22°C 66% 29.98 in
(1015 mb)
Variable 3.5 mph
(Variable 6 kph)
- 10SM
07:53
Clear
79°F / 26°C 73°F / 23°C 84% 30.01 in
(1016 mb)
Calm - 8SM
06:53
Clear
Fog And Mist
73°F / 23°C 72°F / 22°C 94% 30.01 in
(1016 mb)
Calm 0.00 in
(0.00 mm)
4SM
06:04
Partly Cloudy
Fog And Mist
72°F / 22°C 70°F / 21°C 94% 30.01 in
(1016 mb)
Calm - 3SM
05:53
Partly Cloudy
Fog And Mist
70°F / 21°C 70°F / 21°C 100% 30.01 in
(1016 mb)
Calm - 2SM
05:15
Partly Cloudy
Fog And Mist
70°F / 21°C 68°F / 20°C 94% 29.98 in
(1015 mb)
Calm - 2SM
04:53
Partly Cloudy
Fog And Mist
70°F / 21°C 68°F / 20°C 94% 29.98 in
(1015 mb)
Calm - 4SM
03:53
Clear
Fog And Mist
72°F / 22°C 68°F / 20°C 88% 29.98 in
(1015 mb)
Calm - 6SM
02:53
Clear
Fog And Mist
70°F / 21°C 68°F / 20°C 94% 29.98 in
(1015 mb)
Calm - 5SM
02:48
Clear
Fog And Mist
70°F / 21°C 66°F / 19°C 88% 29.98 in
(1015 mb)
Calm - 4SM
02:30
Clear
Fog And Mist
70°F / 21°C 66°F / 19°C 88% 29.98 in
(1015 mb)
Calm - 2 1/2SM
01:53
Clear
70°F / 21°C 68°F / 20°C 94% 29.98 in
(1015 mb)
Calm - 8SM
01:38
Clear
Fog And Mist
70°F / 21°C 68°F / 20°C 94% 29.98 in
(1015 mb)
Calm - 4SM
01:21
Clear
Fog And Mist
70°F / 21°C 68°F / 20°C 94% 29.98 in
(1015 mb)
Calm - 1 1/2SM
01:07
Partly Cloudy
Fog And Mist
70°F / 21°C 68°F / 20°C 94% 29.98 in
(1015 mb)
Calm - 3SM
00:59
Partly Cloudy
Fog And Mist
70°F / 21°C 68°F / 20°C 94% 29.98 in
(1015 mb)
Calm - 1 1/4SM
00:53
Obscured
Fog
70°F / 21°C 68°F / 20°C 94% 29.98 in
(1015 mb)
Calm - 1/2SM
00:49
Obscured
Fog And Mist
70°F / 21°C 68°F / 20°C 94% 29.98 in
(1015 mb)
Calm - 3/4SM
00:46
Clear
Fog And Mist
70°F / 21°C 68°F / 20°C 94% 29.98 in
(1015 mb)
Calm - 1 3/4SM
00:08
Clear
Fog And Mist
72°F / 22°C 70°F / 21°C 94% 29.98 in
(1015 mb)
Calm - 3SM
Time Weather Temperature Dewpoint Humidity Pressure Winds Precip Visibility


Weather for websites

WeatherForYou.com, LLC is not responsible for any damages or problems caused by this service. Current weather conditions are obtained from the closest station including government and personal stations which may have varying degrees of accuracy. Weather forecasts are derived from the NOAA NDFD. Like all things, this site belongs to Jesus Christ... He just trusts us to maintain it. If you have any questions or comments email webmaster@weatherforyou.com

Copyright © 2016, WeatherForYou.com LLC. All rights reserved.